User: anonymous   Login
Location: Melbourne
(37.8170°S, 144.9670°E)
Time: 03:00:12
(UTC+11:00)
Language:

CZ-3 R/B - Orbit

View from above orbital plane
View from above orbital plane
View from above satellite
View from above satellite

Ground track
Ground track

The orbit data is extracted from the following two-line orbital elements,

1 29517U 06048B   17019.41867064  .00018081  00000-0  58308-3 0  9991
2 29517  28.4690  35.4770 4404242 221.6012  94.9165  6.76059113157459
Epoch (UTC): 19 January 2017 10:02:53
Eccentricity: 0.4404242
inclination: 28.4690°
perigee height: 233 km
apogee height: 10639 km
right ascension of ascending node: 35.4770°
argument of perigee: 221.6012°
revolutions per day: 6.76059113
mean anomaly at epoch: 94.9165°
orbit number at epoch: 15745

The dashed part of the orbit path shows where the satellite is in the earth's shadow,  

DLR